Theta_e
289 290 290 291 290 290 290 290 290 290 292 292 291 292 295 295 294 293 296 295 296 299 301 302 302 302 303 303 303 305 306 306 307 309 314 320 323 325 326 328 330 331 332 334 335 336 337 338 338 339 340 341 342 343 344 344 345 345 346 346 346 346 346 346 347 348 348 349 349 349 349 349 349 349 349 350 350 351 351 351 351 352 352 353 352 352 354
288 288 289 290 289 289 290 290 291 292 292 294 297 296 296 296 294 296 297 297 297 301 303 302 304 303 301 302 305 307 307 306 307 308 313 319 323 324 326 328 330 332 333 334 335 336 337 337 338 339 340 341 342 343 343 344 345 346 347 346 346 346 346 346 348 348 349 349 349 349 349 349 349 349 349 350 350 350 350 351 351 352 352 353 353 352 352
285 288 291 291 290 289 288 290 292 295 297 299 301 301 300 299 296 297 296 296 298 302 304 307 307 308 310 312 313 313 310 308 313 314 316 320 323 325 327 328 330 332 333 334 335 336 337 337 338 339 340 341 342 343 344 345 346 347 347 346 346 346 346 347 348 349 349 349 349 348 349 349 349 349 349 350 350 350 350 350 351 351 352 351 352 353 353
283 288 289 289 289 289 288 289 294 297 298 301 302 299 302 297 295 295 295 294 296 301 307 307 315 324 324 323 325 326 321 311 316 318 320 322 324 325 327 328 330 331 333 334 335 336 336 337 338 339 341 342 343 343 344 345 346 348 348 347 347 347 347 348 349 349 349 349 349 349 349 349 349 350 350 350 349 349 349 349 350 351 350 350 351 351 352
281 286 288 288 288 291 291 292 296 298 300 301 307 309 309 308 306 299 296 297 302 310 312 310 320 325 327 329 330 330 330 321 314 318 321 323 324 326 327 329 331 331 333 334 335 336 337 338 338 340 341 342 342 344 345 347 348 348 348 348 348 348 349 349 349 349 350 349 349 349 349 349 350 350 350 349 349 349 349 350 350 350 350 350 350 350 350
280 285 287 288 289 284 286 298 302 301 300 301 299 306 308 309 309 306 306 309 312 315 317 319 322 327 329 330 332 335 334 329 316 316 319 322 325 326 328 330 331 332 334 335 336 337 338 339 340 341 342 342 344 346 347 349 349 349 349 349 349 349 350 350 350 350 350 350 349 350 350 350 350 350 349 349 349 350 350 350 350 349 350 350 350 350 350
279 284 286 288 283 286 298 301 302 304 304 304 302 303 311 310 310 309 310 312 314 316 323 325 327 329 332 333 333 335 336 337 325 316 318 320 324 325 327 329 331 332 334 335 336 337 338 339 340 341 341 343 344 345 347 348 349 350 350 350 350 350 350 351 351 351 351 350 350 350 351 351 350 350 350 350 350 350 350 349 349 349 349 349 350 350 350
284 282 280 278 284 296 302 302 302 305 306 304 303 304 311 310 310 309 308 312 317 319 319 326 328 330 332 334 335 336 337 338 339 333 324 320 323 324 327 329 330 332 333 334 335 337 340 341 340 341 341 343 343 344 346 347 349 350 351 350 350 351 351 351 352 352 352 351 351 351 351 351 350 350 350 350 350 350 350 350 350 351 351 351 350 350 350
277 280 280 282 290 295 299 297 297 300 297 299 299 295 304 310 310 310 309 312 318 320 321 323 323 323 328 330 331 336 336 337 339 341 340 338 325 325 327 329 330 332 334 335 337 341 339 340 340 340 341 343 343 343 344 346 348 349 350 350 351 351 352 352 353 353 353 352 352 351 351 351 350 350 350 350 351 352 350 350 350 350 350 350 351 350 350
285 279 278 278 285 286 291 297 300 303 304 305 305 301 303 311 309 310 310 309 316 320 323 324 325 324 327 324 327 333 335 337 337 341 342 343 342 336 333 334 332 333 335 338 341 339 339 339 340 341 343 344 344 344 344 345 346 347 349 349 351 352 352 353 354 354 354 353 353 352 352 351 351 351 352 352 352 352 351 350 349 350 351 351 351 352 350
283 280 276 276 280 289 296 296 301 303 305 306 307 300 302 309 309 311 310 311 314 319 322 325 326 324 321 322 325 331 334 335 338 339 341 343 344 345 342 337 336 336 338 339 341 340 340 339 341 344 345 345 345 344 345 345 346 346 347 349 351 352 353 354 355 355 355 355 354 353 353 353 353 352 352 352 353 353 352 352 351 352 352 351 351 351 351
284 281 279 276 284 283 295 300 302 304 307 309 303 296 299 305 308 311 311 312 313 318 323 326 325 324 320 321 325 332 334 335 338 339 340 342 343 344 346 348 346 346 348 346 341 339 339 340 343 345 346 345 346 345 346 346 345 346 347 349 351 353 354 355 356 356 356 356 355 354 354 354 354 354 354 354 354 353 353 353 352 352 352 352 351 351 351
285 285 281 284 286 299 301 302 304 308 309 306 297 291 299 308 309 310 311 312 314 319 321 323 321 324 327 328 330 332 333 334 335 339 341 342 343 343 344 346 350 347 347 346 345 345 346 347 346 346 346 345 346 348 347 346 346 347 349 351 352 353 354 355 356 356 357 356 356 356 356 355 355 355 355 354 354 354 353 353 353 352 352 352 351 351 351
281 281 280 281 288 299 303 306 308 308 305 295 293 303 312 308 306 309 311 311 312 316 322 322 323 325 328 327 328 328 330 331 333 335 337 339 341 341 344 347 346 343 344 345 346 348 350 351 349 348 347 347 349 349 348 346 348 351 352 352 353 354 355 355 356 356 357 358 358 357 357 357 356 355 356 356 355 354 354 353 352 352 352 351 351 351 352
286 284 282 285 282 296 305 306 306 306 297 297 304 307 308 308 306 307 309 311 311 312 318 322 323 323 323 323 325 326 327 329 330 332 333 335 337 338 338 338 342 342 341 341 342 344 348 352 352 352 351 351 350 350 348 349 351 353 353 352 355 354 355 355 356 357 358 358 357 358 358 358 356 355 356 355 355 355 354 353 352 351 351 351 351 350 351
285 287 285 285 296 299 306 304 295 302 303 307 308 306 303 306 306 306 308 310 312 311 313 318 320 320 320 321 322 323 324 326 328 329 331 333 335 337 339 339 339 341 339 340 340 342 344 347 350 352 351 349 350 349 347 349 350 354 355 354 353 354 354 354 355 357 358 359 359 359 359 358 357 356 355 355 355 354 354 352 351 351 351 351 351 349 349
289 287 292 296 302 305 306 306 304 304 305 306 307 307 306 304 305 308 308 308 311 311 310 313 318 318 319 319 320 320 321 323 324 326 327 329 331 334 336 338 341 338 337 338 339 340 341 343 345 347 349 349 349 346 346 351 352 353 353 352 352 351 352 354 354 356 357 358 359 359 359 359 357 356 356 356 354 354 353 352 351 350 351 351 350 350 349
295 296 299 302 300 305 304 304 304 302 303 305 305 304 304 306 307 308 308 309 309 310 311 310 312 315 318 318 318 319 320 322 323 325 325 327 329 331 334 337 338 337 337 337 337 337 338 340 341 343 344 346 345 344 348 353 351 353 355 353 351 351 351 352 353 355 355 356 358 359 359 360 359 358 357 355 354 354 353 352 352 351 350 350 350 350 349
289 288 297 296 296 300 303 302 304 304 305 304 305 304 304 305 307 308 307 309 309 309 310 310 310 311 312 317 318 318 319 320 322 323 324 325 327 328 329 334 338 335 336 336 336 336 336 336 338 340 341 342 344 346 348 349 351 353 356 354 354 351 350 351 351 353 354 354 355 357 358 359 359 359 358 357 355 353 353 352 352 351 351 350 349 350 349
289 291 294 296 297 301 304 303 302 302 303 304 305 305 305 305 307 307 309 310 309 309 308 310 310 309 310 310 313 317 317 319 321 323 324 324 326 328 329 331 336 335 334 334 335 335 335 335 337 338 339 340 341 344 346 349 351 353 355 357 354 351 349 350 351 352 353 358 357 355 357 357 358 358 358 358 356 354 354 354 353 352 352 351 350 350 350
291 294 296 295 297 302 302 302 303 304 304 303 304 304 303 304 305 305 308 309 308 307 308 311 309 308 308 309 311 314 317 318 320 322 324 325 325 327 328 330 334 333 335 335 333 334 334 334 336 337 338 339 341 343 345 347 349 351 352 351 349 349 349 350 351 355 354 357 357 352 335 324 314 314 322 334 354 357 357 359 358 356 354 354 353 355 355
287 288 292 294 288 289 296 299 299 300 303 303 302 304 303 304 304 304 307 308 309 309 308 310 309 307 308 308 309 312 317 318 319 321 324 325 325 327 329 331 331 333 335 337 334 334 333 334 336 337 337 338 340 343 344 345 347 350 348 346 347 347 347 350 351 355 354 355 350 341 337 329 324 318 308 300 304 326 345 322 318 321 330 355 358 357 356
287 293 295 296 295 295 296 297 299 300 303 303 301 302 303 304 305 305 306 307 307 308 309 311 309 308 308 307 308 311 316 318 320 322 324 324 325 326 329 329 330 332 334 337 336 336 334 334 334 335 336 336 338 341 342 343 345 345 345 346 344 345 346 349 351 353 352 348 343 340 338 337 335 330 329 321 301 298 303 307 303 304 312 318 323 334 352
295 297 297 298 296 294 297 299 300 300 303 303 301 302 304 305 305 306 307 309 308 308 309 307 308 310 309 307 308 310 316 319 320 323 325 325 326 328 330 329 330 332 333 334 334 334 333 334 332 333 335 335 336 339 341 342 341 342 344 345 344 342 341 345 349 349 348 344 341 339 338 338 338 336 335 333 326 305 298 301 300 297 296 302 309 316 321
294 299 299 299 299 299 300 301 301 302 303 304 301 302 303 304 306 307 308 310 311 311 307 306 306 310 311 308 308 311 315 318 323 325 324 325 326 327 328 329 330 331 332 332 331 332 332 334 333 333 334 335 336 338 340 342 342 342 341 343 342 342 342 345 347 347 343 341 341 341 339 339 338 338 337 335 331 324 316 302 300 298 298 298 299 300 302
299 298 299 300 301 301 302 302 301 302 302 303 302 303 306 308 308 309 310 310 311 311 309 306 305 308 312 309 308 311 317 321 324 323 318 320 321 323 324 326 330 333 332 331 331 335 335 335 334 332 332 333 334 337 339 341 342 342 342 342 343 342 341 342 343 343 343 342 341 342 341 341 341 340 340 336 333 330 329 328 324 313 304 299 298 298 298
299 300 299 298 298 300 302 300 299 303 303 303 302 302 303 305 309 312 313 312 311 311 310 308 307 309 310 311 311 314 319 323 322 319 317 318 319 320 322 326 329 329 328 327 327 331 332 331 331 331 331 331 333 337 338 339 339 339 340 342 346 350 348 344 340 341 342 342 342 342 341 340 340 338 335 333 332 332 331 329 326 322 321 317 305 300 306
298 299 299 295 295 297 300 303 305 305 304 303 302 301 302 304 307 308 310 310 311 310 310 310 310 309 309 309 311 316 319 320 318 316 316 315 317 318 319 323 326 324 324 324 323 326 326 325 326 328 328 328 331 336 337 337 336 336 337 339 340 339 340 340 338 338 338 339 340 341 340 337 336 334 334 334 331 327 324 326 324 322 320 317 313 306 299
297 298 299 299 299 301 303 304 304 303 302 303 304 302 302 303 305 306 307 308 309 309 309 310 312 312 312 310 314 317 316 317 315 314 313 314 316 316 318 321 324 322 321 321 321 322 322 323 323 324 326 327 328 335 335 335 335 335 336 337 338 338 337 336 335 334 334 334 335 334 332 333 334 333 332 331 330 328 327 325 325 323 321 321 321 320 316
297 299 298 298 299 300 301 300 300 302 302 301 300 300 301 300 301 303 305 307 309 308 309 310 310 310 312 313 317 316 314 313 312 311 311 312 314 315 316 318 321 320 319 318 318 319 320 321 322 323 324 326 327 333 334 334 332 332 332 332 334 335 335 335 334 333 332 332 332 330 333 333 333 332 331 329 328 329 328 328 328 326 326 327 325 323 321
297 298 298 298 299 299 299 300 302 301 301 301 300 299 299 300 300 301 302 303 306 307 308 309 310 311 313 317 317 315 313 311 310 310 310 312 313 314 314 315 315 314 314 315 316 318 319 320 322 323 325 326 328 333 334 332 331 331 330 330 330 325 324 326 328 334 333 333 333 333 332 331 331 331 331 329 329 328 326 325 324 322 322 322 321 321 320
296 296 296 296 297 297 298 299 301 302 299 299 298 298 298 298 298 299 300 302 302 304 305 307 309 312 317 317 315 313 311 310 310 310 310 311 312 313 313 313 313 314 313 315 316 318 319 321 322 324 326 328 331 332 331 331 331 330 330 331 328 328 326 324 328 329 333 335 334 334 334 332 331 332 331 328 325 324 323 321 319 319 319 317 316 315 318
294 293 293 294 296 296 296 298 298 300 302 298 297 298 299 300 300 301 302 303 304 305 306 307 311 315 316 313 311 310 310 309 309 309 309 310 311 312 313 314 313 313 313 314 316 318 319 319 321 323 326 328 328 328 328 327 327 327 327 328 328 329 328 324 324 328 329 328 328 329 330 331 331 329 327 326 324 323 321 319 318 317 316 315 313 313 313
294 294 294 296 296 295 295 296 298 299 302 305 301 299 299 301 301 301 302 304 304 305 307 309 313 313 311 309 309 310 310 310 310 308 307 308 310 312 313 313 313 312 312 314 315 317 319 320 321 321 322 324 325 325 325 325 325 325 324 325 324 323 324 323 324 325 324 324 324 324 325 326 325 325 324 322 321 320 319 318 317 315 314 313 313 313 308
298 297 298 298 298 299 299 298 298 299 300 301 304 306 304 301 301 301 304 304 303 304 309 312 310 310 309 308 307 307 307 307 307 307 307 309 310 312 313 313 312 312 312 312 313 315 318 320 320 319 319 320 322 322 322 323 323 323 322 323 324 323 323 323 322 321 321 321 321 319 317 316 318 321 320 319 318 317 317 316 315 314 312 312 313 314 311
297 297 297 297 298 299 299 299 299 300 300 301 303 304 305 307 308 309 309 309 311 312 310 309 309 308 307 307 306 306 306 306 307 307 308 309 310 311 311 312 312 311 311 311 313 315 316 319 322 321 319 319 319 321 321 319 319 320 320 319 319 319 319 319 319 319 319 319 318 318 317 317 316 314 314 314 314 313 312 311 311 311 311 310 310 309 309
297 297 297 297 297 297 298 299 300 299 300 300 301 303 304 304 305 307 309 309 309 308 308 307 307 306 305 306 306 307 307 307 307 307 308 309 310 310 310 310 310 310 310 309 311 314 316 317 319 320 317 317 317 318 320 320 317 317 317 316 315 315 315 314 315 314 314 315 315 315 316 314 312 311 312 311 310 310 310 309 309 309 308 308 308 308 307
297 297 297 297 297 297 297 298 300 300 300 299 300 302 304 304 304 305 305 306 307 308 307 307 306 306 307 307 306 306 306 307 307 307 308 308 309 308 308 308 308 309 308 308 311 313 314 316 316 314 313 314 315 315 316 317 318 313 313 313 313 313 313 312 312 311 311 310 312 311 311 310 309 308 308 308 307 307 307 307 306 306 305 305 305 305 305
297 297 297 298 298 297 297 298 299 300 300 299 299 300 302 304 304 304 304 305 306 308 307 306 307 306 305 305 305 305 306 307 307 307 307 307 308 307 306 307 308 310 310 312 312 312 313 313 313 313 312 312 312 312 315 316 314 309 309 309 308 309 309 309 309 309 309 309 308 308 307 306 306 306 305 305 305 305 306 305 304 304 303 303 302 302 302
297 297 297 298 297 297 297 297 297 298 300 300 299 299 300 302 302 303 302 303 305 307 305 306 305 304 304 304 304 304 305 306 307 307 307 307 307 306 307 307 309 311 312 313 312 311 312 313 311 310 310 312 314 314 315 314 312 309 306 305 305 305 305 306 305 304 304 305 306 307 305 305 304 304 303 303 302 302 302 302 302 302 301 301 301 301 301
298 298 298 297 297 297 297 297 297 297 298 299 299 300 301 301 301 301 302 302 303 305 305 305 304 304 304 304 304 305 306 307 307 306 307 307 305 305 304 304 308 310 312 311 311 312 312 311 309 308 309 310 310 311 310 312 311 309 309 308 308 306 304 303 302 301 301 301 302 301 301 302 302 302 302 301 300 299 299 299 299 300 299 299 299 300 300
301 299 299 299 298 298 297 297 298 297 297 298 300 300 300 301 301 301 302 303 303 303 303 304 307 305 304 305 305 305 305 305 306 306 306 305 304 304 303 304 309 310 311 311 311 310 309 308 309 309 308 309 310 311 310 308 306 306 305 305 305 306 305 305 303 302 301 300 299 298 299 299 299 299 300 300 299 299 299 298 298 298 298 299 298 298 298
302 301 300 300 300 299 298 298 297 297 298 298 299 300 300 300 301 301 301 302 303 302 302 302 304 304 304 303 303 303 303 305 305 305 305 306 307 307 305 306 308 310 312 311 309 308 308 308 308 308 309 308 308 310 308 305 304 304 304 304 304 303 303 303 302 302 300 299 298 298 298 297 297 297 297 297 297 297 297 297 296 296 297 296 297 297 297
303 302 303 302 301 302 300 298 298 297 297 298 299 300 300 300 300 301 301 301 301 302 301 301 301 302 302 302 301 301 301 302 303 305 304 304 305 307 309 308 309 309 310 310 309 308 308 308 307 308 310 309 308 307 305 303 303 303 303 303 303 302 302 301 301 300 300 300 299 298 298 299 297 296 296 296 296 296 297 296 295 295 295 295 295 296 296
302 303 303 303 303 302 300 299 298 297 298 299 299 300 300 299 300 300 300 300 301 301 302 301 301 301 301 302 302 301 301 302 302 303 302 303 302 303 308 311 310 309 309 309 307 307 307 307 308 310 308 307 307 306 303 303 302 302 302 302 302 301 301 300 300 299 299 299 298 299 299 298 297 297 296 297 297 296 295 295 294 294 294 294 294 294 294
302 303 303 304 303 302 302 301 300 300 299 299 298 300 301 300 300 301 301 300 300 300 300 301 301 302 302 301 302 302 302 302 302 303 303 303 303 305 309 309 309 308 309 309 307 306 306 309 307 307 306 306 306 303 303 303 302 301 301 301 301 301 300 300 300 299 299 299 298 297 297 296 296 296 296 295 296 296 297 297 297 295 295 295 296 295 295
301 302 303 302 302 303 304 303 303 301 299 298 297 297 300 300 300 300 300 301 301 301 301 301 301 302 302 302 302 301 300 300 301 302 303 304 307 308 309 309 309 309 308 306 306 306 306 306 306 306 306 306 306 302 302 302 301 301 301 301 301 301 301 300 300 299 299 299 299 299 299 299 297 296 298 297 296 296 296 296 295 295 295 296 296 296 295
299 301 302 302 302 303 303 302 301 299 299 298 299 300 301 301 301 301 301 301 300 301 301 301 301 301 302 302 302 303 303 301 298 299 303 303 304 306 307 306 307 307 307 307 306 307 307 306 306 305 305 305 303 302 301 301 301 300 299 299 299 299 299 299 299 300 299 299 298 297 297 297 297 296 296 296 296 296 296 296 296 296 296 296 295 295 295
299 300 302 302 302 303 302 301 300 301 299 301 301 301 302 302 302 302 301 300 300 300 300 300 301 301 302 303 303 301 304 305 302 300 303 304 304 304 305 307 306 305 305 303 303 304 306 306 305 304 304 304 301 301 301 301 302 301 301 301 300 300 299 299 299 299 298 299 299 299 298 297 297 296 296 296 296 296 297 296 296 295 295 295 294 294 294
299 300 299 299 300 300 300 300 301 299 300 301 300 301 302 302 301 300 302 302 301 301 300 300 300 301 301 301 301 302 302 303 305 304 303 304 303 302 303 305 305 305 304 303 302 302 305 305 304 304 303 300 300 301 301 300 300 301 300 300 300 300 300 300 300 301 301 301 299 298 297 297 297 298 297 297 296 295 295 295 294 295 295 294 294 293 293
297 297 297 301 302 303 303 302 303 303 302 303 301 303 301 300 300 301 301 302 301 301 299 300 300 301 301 301 301 302 302 303 304 305 304 303 303 304 303 303 303 303 303 303 302 301 301 301 301 302 301 301 300 300 300 300 300 300 300 299 299 299 299 299 299 299 299 299 299 298 298 298 297 296 296 296 296 295 295 295 294 294 293 293 293 292 292
297 297 297 298 299 299 300 301 301 300 300 301 301 302 301 301 300 300 300 301 300 300 300 299 299 300 302 302 303 303 303 303 305 303 305 305 302 301 302 302 300 301 300 299 299 299 300 302 302 302 301 299 299 299 301 301 299 299 299 300 299 298 299 298 298 298 298 298 298 297 297 297 297 296 296 296 296 296 295 294 294 294 294 293 293 293 292
Wind_Speed
7 7 7 11 11 11 12 14 16 17 16 9 9 9 9 7 8 10 3 6 7 18 14 8 10 9 9 11 12 13 12 9 8 9 11 14 17 17 15 15 17 18 18 16 18 18 17 16 16 16 15 14 13 13 14 15 15 17 16 16 16 16 16 16 16 15 14 13 12 12 12 11 12 12 12 12 12 12 11 11 10 11 10 11 11 11 11
4 8 9 11 11 9 9 12 14 14 14 15 11 14 13 13 10 7 8 11 14 16 13 5 3 3 7 6 3 3 5 10 11 11 14 17 17 17 17 18 18 18 19 18 18 18 16 17 17 17 15 15 16 17 17 17 16 16 15 16 16 15 16 16 14 13 13 12 12 11 11 12 12 12 12 12 12 12 12 12 11 10 10 11 10 11 12
4 7 7 6 6 6 10 12 11 11 11 14 15 13 12 9 8 12 16 11 14 5 4 3 3 3 2 3 4 6 6 6 9 12 15 15 15 16 16 16 17 17 17 16 15 15 16 17 18 18 17 17 16 17 16 16 16 16 16 15 15 16 16 14 13 13 12 12 12 13 13 12 12 13 13 11 11 12 12 12 11 11 10 11 10 10 11
5 3 2 6 7 9 11 12 7 7 9 9 7 1 3 4 7 7 9 8 12 3 13 6 4 7 8 7 9 9 9 7 8 11 12 13 14 15 16 16 16 16 16 15 16 18 18 18 18 17 15 15 15 17 16 17 16 15 15 15 16 15 15 13 13 14 13 13 13 13 13 13 13 13 12 12 12 12 12 12 11 10 12 12 12 11 10
4 5 2 10 13 6 3 4 4 6 3 7 6 1 6 5 3 3 11 13 3 11 12 6 5 5 8 9 10 10 11 10 7 8 10 13 13 15 16 16 17 17 17 18 19 20 18 18 18 18 17 17 17 17 17 16 13 15 16 16 15 14 14 14 14 14 13 14 14 14 14 14 13 12 13 13 13 12 13 12 11 12 12 12 12 12 12
4 5 8 8 1 6 6 5 1 3 2 7 10 5 9 7 3 4 4 7 11 11 8 1 3 8 7 5 6 5 7 10 9 5 5 6 8 12 15 17 18 18 16 15 17 19 19 20 21 18 17 18 15 13 12 12 14 14 14 13 14 14 14 14 14 14 14 14 14 14 14 13 13 13 14 14 14 13 12 12 12 12 13 14 13 12 12
4 5 7 1 5 6 5 7 7 9 2 6 14 10 8 11 11 12 10 10 11 11 6 1 3 4 3 6 10 13 13 11 7 6 6 6 8 9 9 10 11 13 16 16 14 13 13 14 11 11 11 8 9 10 12 14 13 14 14 14 14 14 15 14 13 13 14 14 14 14 14 14 13 14 14 13 13 12 12 13 13 14 14 14 13 13 13
2 4 1 2 4 2 2 4 6 8 3 7 13 4 7 13 14 12 10 12 11 10 9 7 4 1 3 3 11 15 15 14 11 7 2 6 7 9 10 11 10 11 12 13 15 15 11 12 12 13 12 12 13 13 12 13 12 13 14 14 14 13 14 14 14 14 14 14 14 14 14 13 14 14 13 14 14 13 12 12 11 11 10 11 13 13 13
3 4 2 7 6 4 3 4 6 10 5 9 7 5 5 12 13 15 14 15 13 12 10 9 9 7 4 6 11 16 17 16 14 9 7 1 6 8 6 8 8 7 7 8 9 9 11 12 13 12 12 12 12 11 12 12 13 13 13 14 14 14 14 14 14 15 15 15 15 14 14 14 14 14 14 14 13 11 12 12 11 11 12 11 11 12 12
2 1 5 3 1 6 3 3 4 3 4 6 8 2 5 11 18 16 16 15 13 12 11 10 9 4 5 10 9 13 16 15 14 11 9 8 5 5 9 7 9 8 8 9 10 11 11 11 10 10 11 12 12 13 13 12 13 13 13 14 14 14 14 14 15 14 15 15 15 15 14 15 15 14 14 13 13 12 12 12 11 12 10 11 11 11 13
3 1 2 3 2 1 2 7 10 8 5 8 2 3 1 8 14 18 17 16 15 12 10 9 4 3 5 5 7 10 14 13 13 10 10 10 9 7 4 11 12 11 11 13 12 12 13 12 11 12 13 13 13 13 13 13 14 14 14 14 14 14 14 14 14 14 14 14 14 14 14 15 15 15 15 14 13 12 11 11 12 11 11 11 11 11 11
4 3 2 4 4 4 4 10 11 12 9 3 5 2 2 13 18 17 17 17 16 13 11 7 12 8 8 5 6 8 11 10 10 10 11 11 11 10 9 8 8 10 11 12 12 13 15 14 14 15 15 14 15 14 14 13 14 15 15 14 14 13 13 13 12 12 12 13 14 14 15 15 13 14 13 11 10 10 10 9 10 9 10 9 11 10 10
6 7 4 3 5 2 8 11 14 13 8 4 2 2 6 12 15 16 15 15 16 13 11 10 9 8 6 4 5 10 12 13 13 13 12 12 12 12 11 9 7 9 8 10 11 11 10 11 12 13 13 14 13 12 12 12 14 14 12 11 11 12 11 11 11 12 11 12 14 14 14 14 14 13 11 11 11 11 10 10 11 10 11 10 10 11 10
7 5 4 7 4 0 7 12 10 10 1 5 4 4 6 10 14 15 14 14 15 14 12 9 7 4 6 11 12 14 14 12 14 13 14 14 14 14 12 12 10 9 10 10 10 8 6 10 11 11 12 11 9 10 10 11 9 7 8 10 10 9 10 11 12 12 12 12 13 12 12 11 10 11 11 11 10 11 10 10 12 12 11 10 10 10 10
2 2 2 1 1 1 12 14 5 13 7 4 4 5 5 8 11 13 13 13 14 14 11 11 9 9 14 14 14 13 14 14 14 15 15 13 13 13 13 13 11 10 11 11 10 8 6 8 9 10 12 11 9 9 9 7 6 6 6 6 7 8 9 10 10 11 11 13 12 10 11 12 12 12 11 11 11 10 11 11 11 12 12 10 10 10 9
2 2 2 2 3 5 8 9 7 6 7 6 6 6 8 8 9 12 11 12 11 13 12 12 12 13 14 15 14 15 16 17 16 16 16 15 14 12 11 10 10 10 12 10 10 9 8 8 8 10 13 12 10 10 8 4 5 5 6 7 7 9 10 10 10 11 11 12 12 11 12 12 12 12 11 10 10 10 10 10 10 11 9 9 9 10 10
2 2 3 3 4 5 7 7 8 6 6 8 9 8 6 8 10 11 9 14 15 13 13 12 12 13 13 11 11 11 11 11 14 15 14 13 13 12 11 11 9 10 10 11 10 11 10 10 9 9 10 13 12 10 4 5 6 6 7 7 8 9 8 9 11 11 11 11 12 12 11 12 11 11 11 10 10 9 9 10 10 10 9 9 10 10 10
8 6 7 2 6 5 6 7 7 7 8 8 10 11 11 10 9 9 10 13 14 14 14 13 12 12 12 13 13 12 11 11 11 12 12 13 13 13 13 12 10 9 9 10 11 11 10 9 9 8 8 10 12 7 5 4 5 5 7 7 7 9 8 8 9 8 10 10 11 11 12 10 11 11 12 12 11 10 10 10 10 10 10 9 9 9 9
5 3 2 8 8 6 4 6 6 7 6 7 6 8 9 11 12 13 12 11 13 14 12 14 15 13 12 10 10 10 11 13 14 13 11 11 11 10 11 11 9 9 9 10 10 9 10 7 7 7 9 8 7 5 5 4 4 5 6 6 6 6 7 8 8 8 9 8 8 8 9 8 9 9 9 10 10 9 10 9 9 9 9 9 8 7 8
3 3 7 8 9 2 3 3 5 6 6 8 7 7 8 10 11 13 13 12 13 13 13 14 15 16 13 13 12 9 7 8 10 11 11 11 11 11 9 10 9 8 8 8 7 7 7 5 5 5 6 6 5 5 5 4 4 5 6 6 6 6 6 6 7 8 8 10 9 7 7 7 7 7 7 8 8 9 10 9 10 9 9 9 9 8 8
8 6 2 10 11 4 5 5 5 5 6 6 7 8 10 12 12 14 16 12 12 14 12 13 13 16 18 15 14 12 8 6 8 9 11 10 9 9 11 10 7 7 6 6 5 6 4 3 4 5 6 5 5 6 5 4 5 6 5 4 4 4 5 5 5 6 7 7 7 6 5 6 6 5 1 2 5 6 6 7 9 9 9 8 8 8 7
4 2 5 9 8 6 6 8 11 12 8 7 9 5 6 9 11 11 13 14 14 14 11 11 12 13 14 16 15 15 13 11 8 8 9 10 10 10 9 7 8 7 7 6 5 5 4 4 4 5 6 5 5 4 4 4 5 6 5 4 4 2 2 4 5 5 5 5 5 6 7 6 6 6 7 7 5 1 3 5 5 1 4 9 8 8 7
7 8 11 10 10 12 13 12 12 10 3 3 11 10 4 6 8 9 10 11 12 13 14 9 10 13 14 15 14 14 13 13 12 8 8 10 10 10 10 9 10 8 7 6 6 6 6 5 6 6 6 6 5 4 4 4 5 6 5 5 4 2 1 2 5 5 5 6 6 6 7 8 6 7 5 8 14 12 7 5 5 6 3 1 2 6 8
12 11 10 10 10 10 11 11 11 11 7 6 11 14 9 6 6 8 8 9 8 8 10 13 9 9 13 15 13 13 14 13 13 14 10 9 9 10 10 9 9 10 9 8 7 6 5 5 6 6 6 6 6 5 3 3 4 5 5 5 4 3 2 1 4 6 6 6 8 7 7 7 7 7 6 6 7 14 13 12 13 12 10 7 7 9 11
9 11 12 12 13 15 13 13 12 12 12 10 11 13 13 9 8 8 8 6 5 4 7 9 12 8 9 14 13 12 12 12 12 14 13 10 10 10 10 11 12 11 8 7 6 6 5 5 6 6 6 6 6 5 3 2 4 6 5 4 4 4 4 4 4 6 6 5 7 8 9 9 7 7 7 7 7 6 9 14 17 16 15 14 12 10 12
9 11 12 12 12 12 11 10 12 12 11 10 11 12 13 12 9 10 9 7 5 3 4 6 9 11 7 10 12 11 12 13 13 12 10 10 10 10 11 12 11 8 7 7 7 8 8 8 6 6 7 7 7 6 3 4 5 6 6 5 4 3 4 4 5 4 5 5 6 7 7 8 8 7 5 6 8 8 8 7 9 13 16 17 14 15 14
13 12 13 12 8 8 7 8 8 4 6 9 11 13 13 11 12 9 6 6 6 5 4 5 7 9 8 7 11 11 10 12 13 10 9 10 10 10 9 9 10 8 7 7 8 9 9 7 7 7 7 8 8 7 2 4 6 6 6 6 5 6 8 5 3 3 3 4 4 5 6 6 6 5 5 5 7 7 7 8 8 7 6 8 13 15 11
12 12 10 10 12 13 12 11 10 9 8 8 9 11 11 9 7 6 6 6 5 5 5 5 5 8 7 9 7 10 12 12 10 10 10 10 9 9 9 10 9 8 7 8 8 8 7 6 6 6 8 8 8 8 3 5 6 6 6 6 5 4 4 4 4 4 4 4 4 4 5 5 5 5 5 6 6 7 8 8 9 9 8 7 7 11 16
14 12 12 11 11 11 9 7 6 6 7 7 8 6 7 8 8 8 8 8 8 7 6 6 6 7 8 8 6 7 8 9 9 10 9 9 9 9 10 9 7 8 7 7 7 8 8 7 7 7 8 8 8 7 4 4 5 5 6 5 5 4 4 4 4 5 5 5 5 6 6 7 6 6 6 6 7 7 7 8 9 8 8 8 9 9 10
14 12 13 13 13 13 12 10 7 5 6 5 6 6 7 8 7 7 5 6 7 7 7 7 6 5 7 6 5 4 5 6 6 6 7 8 9 9 9 9 5 5 7 9 9 8 7 7 7 7 6 7 7 6 4 4 5 5 6 7 6 4 3 4 4 5 6 7 7 8 7 7 7 7 8 8 8 9 9 8 8 10 9 6 6 6 8
15 15 16 15 14 13 13 13 11 7 5 5 5 5 5 4 6 5 6 5 5 7 7 7 6 7 7 4 3 2 0 0 2 4 5 6 7 8 9 10 8 6 6 7 8 8 8 7 7 7 6 7 6 4 3 3 5 5 6 6 6 9 10 8 6 6 5 6 6 6 7 7 8 9 10 9 8 8 10 11 10 10 9 8 8 7 7
15 13 15 15 14 14 14 13 12 9 4 5 4 5 6 6 7 7 6 6 7 7 7 6 7 7 5 2 1 2 2 4 4 4 4 5 6 6 7 8 7 6 6 7 7 7 7 7 7 8 7 6 4 5 4 3 3 5 5 5 6 5 6 9 6 7 6 5 5 6 6 7 8 9 10 9 8 8 9 12 11 9 8 9 9 6 4
14 13 11 15 15 14 14 14 13 13 10 3 5 5 5 5 5 6 7 6 7 7 7 7 7 7 3 1 1 2 3 2 1 3 4 5 5 5 5 5 6 6 7 8 8 7 7 7 6 6 6 5 6 6 6 5 5 5 4 5 6 6 6 6 6 6 6 7 6 6 7 6 5 8 10 9 8 5 7 12 13 10 7 7 9 8 7
14 12 13 14 13 13 14 14 14 13 12 8 2 5 5 4 5 5 6 6 6 6 6 7 6 2 1 2 2 2 1 1 2 3 5 5 5 5 4 3 3 4 5 7 8 8 8 7 6 5 6 7 7 6 6 6 6 6 7 6 5 6 6 5 6 6 7 8 8 9 9 9 8 6 7 11 9 7 7 10 12 12 11 9 8 8 12
11 12 13 13 13 14 14 12 12 12 12 12 11 7 1 4 5 6 7 6 7 7 4 2 2 3 4 4 4 3 4 3 3 4 5 5 5 5 4 3 2 2 6 8 8 8 7 7 5 4 6 7 8 7 7 8 9 9 10 8 7 6 6 6 6 6 7 8 7 9 10 11 9 8 6 6 9 11 8 7 11 11 11 9 9 10 11
12 11 11 11 12 12 13 13 12 13 13 11 10 11 11 9 7 5 2 1 0 1 4 4 4 5 5 4 4 4 4 4 4 5 5 5 5 5 3 2 3 4 5 6 7 7 6 5 10 11 7 7 8 9 10 9 9 10 10 9 9 8 8 8 8 8 7 8 10 11 11 14 14 12 9 9 10 9 7 7 11 12 11 10 8 7 7
10 10 10 10 10 12 13 12 12 13 12 12 12 11 13 13 10 7 7 7 6 6 5 4 5 6 5 4 4 4 4 4 4 4 3 3 3 2 2 4 5 4 4 4 6 6 5 6 10 16 9 7 8 10 12 16 9 9 10 10 10 9 9 9 9 9 10 9 11 12 12 11 11 11 9 9 9 8 8 8 9 10 10 10 8 8 8
7 9 11 11 11 11 11 11 10 13 16 17 16 16 15 12 11 9 9 9 8 7 7 7 7 6 6 5 6 6 5 5 5 5 4 4 3 3 6 5 5 4 4 3 4 4 4 6 10 10 8 9 9 11 14 19 19 12 10 11 11 10 11 10 10 10 10 10 10 9 9 10 9 9 9 10 9 10 10 10 9 10 10 10 9 9 9
7 7 9 9 10 11 11 11 12 12 13 15 16 17 16 14 13 12 11 12 11 8 6 7 7 8 8 8 7 7 7 5 5 5 4 5 5 6 7 7 5 5 4 4 5 5 6 6 6 6 9 11 12 12 15 19 19 13 11 11 11 10 9 10 9 10 10 10 9 9 9 9 8 8 9 9 10 11 12 11 9 9 9 9 9 10 9
4 5 7 8 9 9 9 9 10 11 11 12 14 15 15 15 14 14 14 13 12 12 10 7 8 9 9 9 8 7 7 7 5 5 4 4 4 5 6 7 7 6 6 8 6 6 11 13 9 8 8 7 7 9 12 18 17 13 13 12 12 12 11 10 10 10 10 11 12 14 11 10 9 9 11 12 10 11 10 10 11 10 9 9 10 10 10
3 4 5 7 8 8 9 9 9 10 11 13 13 13 14 14 14 15 15 13 11 11 12 9 8 11 11 10 9 8 8 9 8 8 6 5 7 6 6 7 6 5 6 6 7 9 12 11 10 9 9 9 9 10 9 11 8 8 10 11 12 14 14 14 14 13 12 12 12 13 12 11 10 11 10 10 11 11 11 13 12 11 10 10 9 9 9
3 3 5 6 7 8 9 9 9 10 12 13 13 14 15 15 15 14 13 12 12 12 13 13 17 14 11 10 9 10 10 9 9 9 9 9 7 5 6 7 6 6 11 10 9 9 8 10 10 10 10 10 11 18 17 11 10 10 10 11 10 9 9 11 12 14 15 15 15 14 13 12 12 10 10 10 10 11 11 11 11 11 10 11 10 10 10
5 5 4 3 4 6 8 9 10 10 10 12 12 13 13 13 13 13 14 13 14 13 14 13 13 15 14 12 12 12 11 10 10 9 9 8 8 7 6 5 5 7 13 9 8 8 9 9 10 10 16 14 13 19 17 12 10 11 11 12 12 12 12 11 10 8 10 13 15 16 16 15 13 11 10 9 9 9 9 10 10 10 9 10 10 11 10
6 5 4 3 3 4 5 6 7 9 10 10 10 11 12 12 12 13 12 13 14 15 14 14 14 14 14 13 13 12 11 11 10 9 8 8 9 10 9 7 6 9 14 8 9 9 10 10 11 17 23 22 22 19 11 10 11 11 10 10 10 10 10 10 10 10 11 10 10 11 12 14 16 15 12 9 9 9 9 9 9 10 10 9 10 10 10
4 3 4 5 4 3 3 5 7 8 6 5 8 10 11 11 11 11 12 12 13 14 13 13 14 13 13 12 11 10 10 10 10 10 10 10 10 9 9 9 9 7 11 14 9 10 10 12 17 22 20 22 21 19 11 11 10 11 10 10 10 10 11 11 11 10 10 11 13 12 11 10 11 13 14 13 10 9 9 8 9 10 11 11 11 10 9
4 4 5 6 5 5 4 3 3 4 5 6 7 9 9 9 9 10 10 11 11 11 11 12 13 13 13 13 13 12 12 11 12 12 10 8 9 7 7 9 6 9 13 13 8 10 12 21 22 20 21 21 20 13 11 11 10 10 10 10 11 11 11 11 10 10 10 11 10 11 12 12 12 11 11 12 11 10 9 10 11 11 11 10 10 9 8
3 3 4 5 5 4 4 2 2 3 5 6 8 8 8 8 8 8 9 10 10 11 11 11 12 12 12 12 11 11 11 10 10 11 11 10 10 10 11 14 13 15 11 9 8 8 9 13 16 20 20 21 18 11 11 10 10 10 11 11 11 11 11 10 10 10 10 11 13 14 14 13 11 11 10 10 11 10 9 10 10 9 9 9 9 9 8
4 4 3 4 4 2 2 3 3 3 4 4 4 5 5 6 7 8 9 9 9 10 10 10 10 12 12 12 11 11 10 9 8 10 9 9 9 8 8 8 11 15 14 12 15 16 21 20 20 18 18 16 11 9 10 10 10 11 11 11 11 10 10 9 10 10 10 10 11 11 11 11 12 12 11 10 10 9 9 9 8 8 7 7 7 7 8
4 4 3 2 2 3 3 2 1 1 2 2 2 3 4 4 5 6 7 7 8 8 8 9 9 9 10 11 11 10 9 9 8 7 7 8 8 7 7 10 15 16 11 8 9 10 16 18 17 18 17 14 9 9 9 10 11 11 10 9 9 9 9 10 10 10 10 10 10 10 10 11 10 10 10 11 10 10 9 9 9 8 8 8 8 8 7
4 4 5 5 3 4 4 3 2 1 0 0 1 2 2 3 4 4 5 6 6 7 6 6 6 7 7 7 7 7 9 9 9 9 8 8 8 9 9 8 9 13 13 9 10 10 13 18 17 16 12 8 9 9 8 9 9 9 9 10 10 9 10 10 10 10 8 9 10 11 11 9 9 11 10 9 9 9 9 9 9 11 15 10 7 7 6
4 4 4 3 4 2 1 0 2 3 2 3 3 2 2 3 3 3 3 4 4 5 5 5 4 4 4 5 5 6 7 8 8 10 8 8 8 9 10 8 8 8 8 8 8 9 9 9 8 9 10 9 9 9 8 8 8 9 9 8 9 8 9 9 8 9 9 9 9 9 9 9 9 9 8 9 9 8 8 8 8 7 7 7 6 6 5
5 4 5 5 5 5 3 4 5 5 5 5 4 4 3 3 3 3 3 6 4 4 4 5 5 4 3 3 3 4 5 7 7 7 7 7 8 7 8 10 7 7 8 7 8 9 8 8 10 12 12 9 9 9 12 14 10 9 9 9 9 10 10 9 9 9 8 8 8 8 9 8 8 8 8 8 8 8 8 7 7 7 7 6 6 6 5
Wind_Direction
239 258 277 278 280 264 268 270 273 280 284 288 261 251 241 276 230 245 224 233 238 260 263 231 214 213 227 234 227 221 227 233 234 231 220 209 205 202 191 188 184 186 186 186 187 185 185 179 177 176 176 177 175 178 177 178 178 182 179 181 184 186 188 191 196 195 195 196 198 197 196 197 199 200 201 201 201 203 205 209 211 211 211 212 213 216 219
262 270 264 270 262 259 259 256 256 260 272 275 267 256 247 238 257 308 256 231 233 249 266 290 292 204 213 235 270 295 243 228 226 218 215 209 202 195 191 186 186 187 188 185 184 182 178 178 178 175 175 176 177 178 179 179 181 180 174 183 184 186 191 195 195 192 192 192 193 192 193 196 199 201 202 202 201 205 208 210 211 209 212 214 214 216 220
275 271 270 255 240 264 277 267 269 274 278 280 263 246 248 233 261 254 260 257 259 256 35 342 307 328 294 314 303 274 268 256 218 208 207 202 192 188 190 187 186 187 187 183 177 175 178 180 179 178 179 179 178 178 178 179 180 178 178 181 184 187 193 193 189 189 189 193 190 192 195 197 199 201 203 201 203 207 209 209 209 209 209 213 215 217 219
302 279 221 268 294 276 246 269 283 295 316 333 336 334 296 194 214 240 256 272 260 330 344 336 346 17 29 0 338 329 313 265 221 206 200 194 188 184 187 187 186 185 182 175 174 179 181 182 180 180 178 175 173 180 179 180 180 174 178 181 185 188 190 186 187 188 191 189 192 196 194 199 199 200 200 201 206 207 208 208 210 208 212 214 217 219 220
263 259 324 312 310 300 247 234 265 282 294 333 312 275 19 17 264 251 224 239 359 315 306 317 356 32 32 19 359 337 319 300 246 216 201 195 190 186 185 184 184 182 181 179 181 183 180 180 181 183 177 174 182 180 178 178 168 174 180 182 183 185 187 188 189 189 188 190 193 195 197 198 198 197 200 203 205 207 209 208 208 210 213 214 217 218 220
256 301 317 303 284 192 210 145 91 285 52 16 354 2 12 343 5 258 253 276 298 318 325 38 64 56 38 24 346 334 326 301 286 235 213 207 208 195 188 184 182 182 181 182 183 181 181 183 184 178 176 182 180 171 164 161 172 174 175 179 182 186 187 190 190 188 189 191 195 197 196 197 198 199 201 204 205 206 207 207 210 213 215 217 218 218 219
276 296 330 170 187 217 145 140 48 13 334 7 346 292 12 2 357 354 346 334 331 318 316 259 95 89 77 29 22 12 358 345 304 227 189 189 185 192 195 192 186 179 180 179 178 177 181 177 167 162 171 152 132 148 162 170 172 171 176 178 182 187 190 190 188 189 190 193 196 197 198 198 199 202 202 205 206 206 206 207 207 212 214 216 218 219 221
320 7 317 182 204 333 297 173 41 18 100 30 352 312 26 19 10 352 342 333 325 319 303 295 269 10 358 354 32 14 5 356 354 326 208 184 169 180 183 181 178 174 176 175 175 178 161 154 164 169 166 158 159 166 166 166 168 172 175 180 186 187 189 189 190 191 190 193 196 197 198 198 200 203 204 205 206 205 207 211 213 214 218 218 219 220 220
170 227 184 241 320 309 28 12 5 2 355 340 349 318 320 23 6 358 343 330 333 335 321 298 287 290 289 29 23 6 3 358 351 349 346 332 174 158 165 168 176 169 156 146 140 134 150 162 162 166 158 160 158 154 161 167 170 174 177 184 188 188 190 190 191 191 191 193 196 197 197 198 201 203 204 207 209 205 208 210 211 212 216 214 218 219 218
184 76 298 334 165 182 197 146 287 323 268 279 274 265 271 16 3 351 346 333 331 332 329 323 300 289 44 28 2 354 354 354 351 351 9 25 36 112 130 118 125 128 127 124 132 137 144 155 156 151 154 155 155 159 165 166 170 177 181 190 189 188 192 192 193 192 193 194 196 197 195 199 201 205 206 207 208 202 205 207 211 213 211 217 217 217 219
37 355 177 237 193 211 146 308 320 317 319 302 252 225 226 24 355 345 342 333 334 333 333 329 341 64 70 43 4 350 348 348 354 358 17 32 41 44 90 135 136 137 142 143 142 142 145 151 157 152 153 151 155 164 168 172 176 180 188 192 188 191 195 193 192 192 193 195 197 196 197 201 203 205 205 205 206 201 205 209 214 213 214 217 219 218 217
218 225 255 265 219 246 305 328 321 318 316 27 144 205 76 3 342 340 338 336 332 325 341 6 45 47 84 42 9 349 349 351 7 11 24 31 37 44 54 55 106 125 129 127 138 150 161 165 160 157 155 160 166 170 175 173 178 187 192 192 191 194 195 193 192 192 193 195 198 196 199 204 204 207 206 205 202 199 205 207 214 213 213 214 218 219 215
231 221 247 281 303 319 346 325 317 319 312 169 118 107 352 340 334 339 334 334 334 336 12 12 57 35 53 63 28 17 14 17 16 21 29 40 45 47 45 54 59 89 98 122 138 147 154 152 156 157 158 163 171 170 167 173 187 191 189 186 188 194 193 191 191 193 193 195 198 201 202 203 203 206 202 204 203 200 202 205 212 215 214 215 218 222 217
222 211 195 228 237 351 319 328 324 311 224 90 103 13 4 344 335 333 337 336 341 344 21 12 21 14 33 43 32 26 20 21 22 22 27 36 46 45 47 50 58 75 81 86 91 92 118 144 148 152 154 155 150 148 159 178 182 171 174 185 186 186 188 192 193 193 194 197 199 202 204 201 201 207 207 205 203 202 203 205 209 214 215 216 219 223 222
173 169 235 287 275 308 352 325 332 13 64 42 2 328 356 1 332 336 339 349 345 352 1 3 354 12 36 33 31 29 25 23 20 21 21 23 28 34 36 40 36 59 73 67 66 72 78 114 134 133 127 125 127 135 143 152 147 146 146 140 161 172 185 192 193 194 194 195 197 199 201 199 200 206 203 201 202 199 201 204 208 212 215 212 216 222 226
251 162 177 179 332 319 335 19 58 50 55 5 14 5 349 347 349 344 341 345 351 355 356 353 357 19 27 26 20 27 23 19 17 18 19 20 24 26 31 38 39 44 64 61 60 51 55 71 100 116 119 118 119 114 123 161 143 135 141 151 162 174 185 191 191 196 196 197 198 199 199 196 199 204 201 199 201 199 200 201 204 210 213 211 213 221 224
35 308 7 335 304 44 31 50 63 44 38 31 2 8 4 352 347 342 345 347 349 359 359 354 360 21 16 22 22 25 8 8 15 16 12 17 20 21 24 28 30 42 53 58 58 53 47 57 65 79 101 112 106 104 146 155 142 141 150 149 166 184 192 191 192 195 194 198 199 200 200 195 196 201 203 195 199 200 197 201 204 207 211 206 210 214 220
309 269 258 353 5 30 60 56 57 46 10 19 7 8 358 353 339 343 345 347 344 351 359 359 360 15 8 12 11 13 8 7 1 3 6 8 8 15 20 21 24 35 45 53 56 59 48 44 59 65 71 89 98 118 143 134 138 135 136 146 161 179 188 193 198 194 197 202 202 202 200 197 199 198 198 195 198 198 195 201 202 204 208 205 210 213 217
353 157 88 18 353 329 88 85 84 74 37 11 354 7 355 337 340 336 349 345 341 344 352 1 355 359 5 9 14 11 11 11 8 5 3 0 8 10 9 7 16 29 42 49 48 52 55 35 56 65 76 78 99 121 114 121 125 128 127 141 155 164 182 186 189 187 194 199 199 202 203 199 200 199 199 199 198 197 195 198 199 203 205 206 208 207 215
264 310 358 1 322 268 103 93 56 50 34 16 9 6 349 337 334 336 338 350 342 343 354 2 356 344 357 6 4 4 18 8 3 0 1 359 357 1 6 5 13 27 42 54 52 51 48 27 45 68 78 85 101 103 93 90 95 104 105 123 150 169 180 178 183 185 191 193 188 193 192 191 194 195 195 197 195 197 195 193 194 200 201 204 206 202 207
291 285 9 4 344 127 112 91 71 44 20 359 352 2 353 338 339 337 333 349 341 336 346 355 1 351 346 357 355 346 352 15 15 1 353 356 356 353 2 354 9 28 27 44 58 62 48 22 57 63 61 60 61 72 74 76 88 83 79 73 101 143 162 168 182 186 184 186 183 162 107 78 55 39 358 272 204 196 201 200 198 197 201 206 205 209 207
308 4 12 15 344 302 291 303 309 321 331 330 318 334 345 330 328 332 332 336 335 329 339 1 354 358 341 346 351 344 339 344 1 10 5 355 355 353 352 347 5 15 25 32 36 46 28 17 46 53 52 47 45 52 68 76 89 88 92 82 74 74 143 165 170 162 151 153 135 129 133 120 113 74 63 82 40 1 157 6 5 304 185 201 202 197 200
295 312 311 303 284 275 272 283 293 293 269 337 302 298 294 300 301 317 321 324 325 329 331 349 358 349 343 338 343 339 338 335 339 358 17 4 350 352 347 353 0 4 10 18 29 30 14 12 32 33 35 21 24 22 50 77 88 101 102 90 80 66 78 166 167 151 144 140 140 134 141 143 134 130 129 57 46 45 42 37 43 52 94 189 242 193 181
282 280 284 287 284 277 282 278 276 282 276 285 280 285 280 245 266 287 295 296 299 312 321 325 344 355 340 330 338 331 328 331 340 340 3 12 350 351 357 358 356 360 2 6 10 0 358 20 28 25 25 13 359 355 24 72 96 99 103 112 116 109 109 127 145 142 144 140 141 138 143 148 142 145 128 111 64 38 41 54 56 55 45 69 118 139 154
309 311 302 294 289 282 274 271 271 267 263 249 255 265 271 260 242 250 252 264 268 293 309 315 321 339 344 321 326 326 324 322 335 343 346 0 2 359 355 356 355 351 345 344 342 353 5 26 34 25 23 357 345 341 350 64 99 91 90 96 110 114 108 110 130 144 135 139 149 149 152 154 157 153 142 142 121 95 48 59 67 59 51 47 56 80 94
322 312 305 299 287 280 275 273 268 258 254 242 241 249 254 249 232 235 231 213 235 257 280 308 313 313 329 318 315 323 322 327 338 346 348 354 354 355 356 348 346 353 357 9 14 16 10 6 15 24 17 348 339 331 331 49 74 84 87 91 116 124 113 124 127 145 154 156 153 160 160 159 161 152 148 140 140 134 125 117 71 58 52 48 57 76 85
330 322 317 311 300 290 281 262 272 243 232 238 234 239 240 245 247 238 228 189 203 218 231 270 288 293 307 307 311 317 321 331 338 353 350 355 355 345 339 336 359 1 8 17 20 16 21 19 10 13 12 355 336 316 335 78 83 80 81 80 75 102 118 117 119 119 124 146 142 137 151 152 144 137 124 126 131 129 133 120 106 93 85 58 43 50 70
334 330 335 326 314 310 306 294 282 269 244 244 240 241 242 244 242 235 223 196 201 199 219 244 278 293 298 306 325 320 332 343 344 345 347 349 338 334 338 340 351 355 15 22 16 8 14 13 11 8 10 357 338 317 326 71 79 79 75 77 85 79 57 96 103 102 103 98 103 119 124 114 112 106 112 119 110 112 107 102 106 107 92 72 81 63 66
338 339 333 322 313 313 311 299 293 262 246 244 250 247 240 221 223 228 221 209 204 198 209 232 232 261 270 279 308 321 331 337 344 347 340 334 339 342 336 334 343 360 14 18 14 12 11 12 8 10 353 349 328 318 320 50 62 65 64 64 78 72 83 78 89 96 90 81 89 101 100 103 106 106 103 101 108 103 98 101 100 95 102 110 99 85 72
333 335 341 335 327 335 342 342 311 286 267 243 247 254 246 244 240 228 238 228 219 221 220 210 211 238 256 260 256 280 312 331 334 336 336 343 348 352 348 339 327 1 14 16 6 0 5 10 7 357 339 330 320 313 336 59 67 65 68 65 52 63 67 77 97 97 98 101 101 95 94 100 102 102 100 100 106 110 107 102 103 112 107 100 94 102 106
336 338 348 346 344 346 353 348 339 316 271 251 226 255 281 270 251 244 234 246 236 235 243 238 222 217 234 249 248 278 344 24 358 333 343 353 358 2 7 8 17 13 5 356 348 354 6 3 358 347 318 317 313 333 351 62 85 80 75 68 68 68 76 81 83 92 102 110 107 107 107 110 114 111 108 107 103 101 104 105 100 95 96 95 90 89 106
343 343 354 357 353 355 358 353 345 346 299 258 239 227 229 239 256 261 269 271 264 258 261 264 272 264 252 207 151 98 71 5 342 346 359 16 13 6 12 16 16 14 6 2 8 6 9 7 4 342 321 318 353 25 20 8 56 89 83 84 79 70 64 79 76 73 85 83 93 103 110 118 117 114 109 107 108 112 109 101 91 84 86 87 79 62 55
346 348 356 357 357 0 2 359 357 352 353 299 244 244 233 224 240 257 265 271 280 278 269 260 254 265 283 32 84 82 92 106 32 20 5 16 24 14 6 13 12 8 12 6 353 356 11 14 354 342 347 19 35 38 37 44 38 43 60 81 85 77 75 62 78 89 75 70 65 65 84 90 100 114 114 112 109 97 99 105 103 91 74 71 76 71 61
349 351 344 347 358 1 359 0 2 359 353 353 293 229 260 262 248 257 265 272 273 281 272 262 263 294 31 41 40 32 18 25 53 23 3 351 359 3 353 352 18 41 26 17 6 5 7 4 2 16 15 27 36 39 41 47 54 53 38 26 61 81 69 57 57 73 79 80 81 74 72 77 77 68 100 108 97 86 88 105 106 102 94 77 70 70 66
343 341 344 342 344 360 10 7 2 358 1 5 7 20 68 209 234 251 256 257 259 267 286 348 40 53 57 58 54 37 40 36 25 25 5 356 348 345 325 313 315 18 42 34 21 4 358 4 9 22 39 42 42 48 48 53 62 60 53 48 36 40 54 61 56 55 74 89 84 79 76 70 62 68 53 71 97 97 82 78 95 98 96 88 79 74 65
354 348 348 349 350 350 3 12 9 8 11 9 9 17 16 21 40 56 68 123 242 109 76 74 68 67 55 49 57 64 66 58 41 29 15 10 347 328 317 319 3 34 38 36 17 357 347 13 52 62 63 55 56 55 59 63 58 59 58 56 49 41 45 52 55 61 60 71 80 85 89 93 88 71 54 65 76 71 81 81 81 83 84 81 80 67 65
356 357 356 355 354 357 4 9 15 19 16 16 14 10 16 15 14 21 41 46 47 50 46 60 73 72 69 63 66 59 60 61 59 50 31 348 333 327 353 39 33 33 27 40 358 340 3 39 60 65 57 59 59 58 65 72 69 67 66 61 54 49 49 55 56 59 63 55 77 86 87 85 86 87 80 73 58 50 64 68 68 69 72 72 69 67 62
355 1 1 358 354 358 4 6 7 23 26 27 22 21 16 13 12 21 35 41 43 53 68 74 79 80 73 67 60 55 54 53 57 54 40 17 1 49 48 41 27 15 37 27 346 1 356 34 52 66 61 60 62 67 71 77 83 78 71 68 67 63 58 54 56 53 52 53 59 58 65 75 81 81 78 74 68 69 67 64 66 72 73 71 67 65 64
5 9 12 4 1 1 359 6 15 21 28 33 30 26 16 13 17 23 33 37 34 30 46 74 82 75 68 63 58 51 46 43 53 57 60 61 62 63 57 47 32 26 28 22 28 42 40 32 22 50 75 80 77 68 72 75 79 80 77 76 73 66 64 59 60 56 56 56 55 55 58 59 57 64 70 75 78 77 74 72 67 65 68 69 68 65 63
11 11 15 9 9 360 1 6 15 21 24 29 37 34 21 19 19 27 29 29 30 35 32 26 69 72 62 58 52 45 31 25 12 19 29 28 50 58 61 44 26 13 47 61 59 65 68 64 57 51 46 46 69 96 97 93 88 81 81 78 79 77 75 71 67 65 57 54 55 52 49 50 55 56 67 72 73 75 76 74 70 66 64 64 65 64 64
1 15 14 21 11 6 4 2 11 21 26 28 31 35 32 26 21 28 27 22 21 30 39 33 45 57 55 56 54 50 44 36 26 21 16 34 50 46 48 48 13 5 39 60 66 72 71 67 62 57 53 58 60 67 63 72 74 89 103 106 107 102 98 88 82 75 70 64 62 59 55 46 43 43 53 65 70 68 71 74 72 69 68 67 65 64 64
28 11 18 25 17 11 7 3 4 17 29 29 27 29 32 32 30 27 24 22 24 29 33 31 43 50 49 48 51 51 46 37 33 31 31 34 31 15 45 47 14 34 58 56 58 60 58 60 61 64 62 65 69 76 77 74 72 73 72 71 67 67 79 98 109 113 110 101 90 80 69 58 49 39 39 43 54 64 68 70 72 70 66 68 68 68 69
20 29 17 2 15 13 12 9 10 12 23 29 30 28 29 30 31 29 28 26 26 25 32 30 31 38 40 39 40 42 38 31 30 25 27 26 27 25 26 27 17 51 58 60 60 65 64 63 65 67 71 70 71 73 71 70 71 73 73 73 75 78 78 76 75 73 85 97 103 106 102 93 79 61 37 31 43 50 51 59 64 68 68 69 69 66 63
9 28 42 28 6 18 21 14 17 17 22 20 26 35 31 30 28 29 28 28 26 26 27 27 29 32 35 35 38 38 33 25 22 19 25 22 22 22 15 19 11 48 54 49 57 63 65 66 71 76 75 74 72 70 69 70 72 74 71 71 73 75 73 71 68 67 68 70 75 83 92 102 105 103 91 60 37 45 50 52 57 63 66 66 65 64 62
10 29 50 54 53 54 33 26 27 25 15 10 31 41 38 34 28 27 30 30 30 27 22 23 25 27 28 30 33 32 33 31 28 18 23 23 25 21 5 16 21 20 54 59 56 61 66 72 77 78 77 76 74 73 70 71 68 73 71 75 76 76 74 73 74 73 71 74 76 75 70 68 77 89 99 99 87 70 65 64 64 63 63 60 56 56 55
8 20 40 49 46 44 43 37 26 24 21 24 39 45 42 41 38 32 30 35 36 32 28 24 25 26 27 27 24 23 24 27 26 23 22 18 24 6 22 38 24 33 43 48 55 65 74 76 77 76 77 78 77 74 72 70 68 69 71 74 76 78 77 79 78 76 78 78 76 75 78 83 83 77 79 88 91 89 77 68 63 63 65 66 65 62 57
357 12 49 68 62 30 10 10 360 22 22 27 42 45 41 43 44 39 35 33 37 38 34 30 25 24 25 30 31 28 21 18 21 20 15 6 7 14 17 31 47 52 46 45 51 54 69 75 77 78 79 79 77 75 75 75 73 73 74 76 77 80 82 81 81 83 84 86 86 86 87 84 82 81 78 79 82 82 79 75 71 68 67 68 66 63 62
6 18 42 72 82 77 50 24 16 14 21 23 25 35 41 46 48 48 43 41 37 36 36 35 33 27 23 22 25 27 26 20 26 19 10 13 2 0 12 22 31 35 39 47 55 61 66 74 77 78 78 77 72 71 72 75 77 79 80 81 79 79 80 82 85 87 85 82 84 86 85 85 86 87 88 85 81 79 81 78 78 77 74 73 70 62 61
356 351 353 25 50 85 98 101 75 35 360 352 30 46 51 43 50 57 58 50 46 40 37 36 36 35 30 26 22 11 16 26 31 20 9 18 14 7 4 18 29 30 26 26 36 49 57 59 66 72 74 74 73 76 79 82 84 86 82 80 82 82 85 88 90 90 87 86 87 86 86 87 87 88 90 89 90 87 83 78 72 66 64 62 61 60 58
10 12 360 357 360 36 53 53 41 160 231 104 54 33 53 39 40 47 53 54 61 61 44 37 35 40 39 33 20 15 3 8 21 32 25 22 24 23 21 20 26 40 43 35 36 36 45 53 59 63 64 62 67 70 74 77 77 74 75 75 74 72 70 69 67 65 72 84 88 91 90 89 89 88 86 82 80 80 78 77 77 74 68 64 63 59 58
22 23 1 342 342 348 340 281 7 47 93 118 149 142 97 77 73 74 71 64 51 72 64 53 38 34 41 38 34 26 16 8 17 32 35 32 30 40 40 35 36 39 41 42 42 47 49 42 39 49 58 61 63 63 63 62 60 62 64 63 67 71 72 66 70 73 69 67 67 72 76 81 82 82 79 80 80 77 79 81 80 77 75 75 71 66 61
22 21 15 18 8 352 8 54 60 61 56 62 74 84 80 81 76 67 68 80 67 70 81 79 69 46 39 41 46 34 34 38 21 18 25 32 38 31 35 42 36 36 42 46 47 48 48 55 61 63 64 61 60 64 67 65 59 62 65 67 68 68 68 69 71 70 66 67 72 75 74 77 83 84 84 84 83 83 80 78 77 77 78 78 75 74 67